Probability
0 0 0 0 0 0 0 0 0 0 0 0 0 0 0 1 2 2 2 4 6 8 12 16 18 20 19 17 18 18 18 17 16 16 14 11 10 9 7 6 4 3 3 3
0 0 0 0 0 0 0 0 0 0 0 0 0 0 0 0 1 1 2 3 5 9 13 14 15 17 18 17 17 16 16 16 16 16 14 10 8 7 6 5 4 3 3 3
0 0 0 0 0 0 0 0 0 0 0 0 0 0 0 0 1 2 3 3 4 8 11 11 10 12 14 15 15 15 14 15 15 14 12 9 5 4 4 4 3 3 3 2
0 0 0 0 0 0 0 0 0 0 0 0 0 0 0 0 1 2 3 3 3 5 7 8 7 7 8 10 12 13 14 13 13 12 11 8 4 2 3 4 3 3 2 1
0 0 0 0 0 0 0 0 0 0 0 0 0 0 0 0 0 1 2 2 2 3 6 6 4 2 2 4 8 11 12 11 10 10 10 8 4 2 3 4 3 3 2 1
0 0 0 0 0 0 0 0 0 0 0 0 0 0 0 0 0 0 1 1 1 3 4 3 1 0 0 2 5 8 9 8 7 7 8 7 4 2 2 1 2 2 1 0
0 0 0 0 0 0 0 0 0 0 0 0 0 0 0 0 0 0 0 0 1 3 3 1 0 0 0 0 1 3 4 4 4 5 5 6 4 2 1 0 1 1 1 0
0 0 0 0 0 0 0 0 0 0 0 0 0 0 0 0 0 0 0 1 2 3 2 1 0 0 0 0 0 0 1 2 2 2 4 6 5 4 2 1 1 1 0 0
0 0 0 0 0 0 0 0 0 0 0 0 0 0 0 0 0 0 1 2 3 2 1 0 0 0 0 0 0 0 0 1 1 2 4 6 6 4 3 3 2 2 1 0
0 0 0 0 0 0 0 0 0 0 0 0 0 0 0 0 0 1 2 2 2 1 0 0 0 0 0 0 0 0 0 0 0 1 4 6 6 4 3 3 3 2 1 0
0 0 0 0 0 0 0 0 0 0 0 0 0 0 0 0 0 1 1 1 1 0 0 0 0 0 0 0 0 0 0 0 0 1 4 6 6 4 2 2 2 1 0 0
0 0 0 0 0 0 0 0 0 0 0 0 0 0 0 0 0 0 0 0 0 0 0 0 0 0 0 0 0 0 0 1 1 2 4 7 6 3 1 1 1 0 0 0
0 0 0 0 0 0 0 0 0 0 0 0 0 0 0 0 0 0 0 0 0 0 0 0 0 0 0 0 0 1 1 2 2 3 5 7 6 2 0 0 0 0 0 0
0 0 0 0 0 0 0 0 0 0 0 0 0 0 0 0 0 0 0 0 0 0 0 0 0 0 0 0 1 2 2 1 2 3 4 6 5 2 0 0 0 0 0 0
0 0 0 0 0 0 0 0 0 0 0 0 0 0 0 0 0 0 0 0 0 0 0 0 0 0 0 0 1 1 1 0 1 2 3 3 2 1 0 0 0 0 0 0
0 0 0 0 0 0 0 0 0 0 0 0 0 0 0 0 0 0 0 0 0 0 0 0 0 0 0 0 0 0 0 0 0 1 2 1 1 0 0 0 0 0 0 0
0 0 0 0 0 0 0 0 0 0 0 0 0 0 0 0 0 0 0 0 0 0 0 0 0 0 0 0 0 0 0 0 0 0 0 0 0 0 0 0 0 0 0 0
0 0 0 0 0 0 0 0 0 0 0 0 0 0 0 0 0 0 0 0 0 0 0 0 0 0 0 0 0 0 0 0 0 0 0 0 0 0 0 0 0 0 0 0
0 0 0 0 0 0 0 0 0 0 0 0 0 0 0 0 0 0 0 0 0 0 0 0 0 0 0 0 0 0 0 0 0 0 0 0 0 0 0 0 0 0 0 0
0 0 0 0 0 0 0 0 0 0 0 0 0 0 0 0 0 0 0 0 0 0 0 0 0 0 0 0 0 0 0 0 0 0 0 0 0 0 0 0 0 0 0 0
0 0 0 0 0 0 0 0 0 0 0 0 0 0 0 0 0 0 0 0 0 0 0 0 0 0 0 0 0 0 0 0 0 0 0 0 0 0 0 0 0 0 0 0
0 0 0 0 0 0 0 0 0 0 0 0 0 0 0 0 0 0 0 0 0 0 0 0 0 0 0 0 0 0 0 0 0 0 0 0 0 0 0 0 0 0 0 0
0 0 0 0 0 0 0 0 0 0 0 0 0 0 0 0 0 0 0 0 0 0 0 0 0 0 0 0 0 0 0 0 0 0 0 0 0 0 0 0 0 0 0 0
0 0 0 0 0 0 0 0 0 0 0 0 0 0 0 0 0 0 0 0 0 0 0 0 0 0 0 0 0 0 0 0 0 0 0 0 0 0 0 0 0 0 0 0
0 0 0 0 0 0 0 0 0 0 0 0 0 0 0 0 0 0 0 0 0 0 0 0 0 0 0 0 0 0 0 0 0 0 0 0 0 0 0 0 0 0 0 0
0 0 0 0 0 0 0 0 0 0 0 0 0 0 0 0 0 0 0 0 0 0 0 0 0 0 0 0 0 0 0 0 0 0 0 0 0 0 0 0 0 0 0 0
Wind_Speed
3 4 6 8 9 8 8 8 8 6 4 7 9 8 6 5 7 8 7 7 7 6 4 4 4 5 5 5 5 6 6 6 5 4 4 4 3 3 3 2 3 3 3 3
4 5 6 6 7 6 8 8 6 3 2 5 7 7 7 7 8 8 8 8 7 5 4 3 3 4 5 6 6 6 6 6 6 5 4 3 3 2 2 2 3 3 3 3
4 2 4 5 6 7 7 9 8 5 2 3 5 6 7 6 6 6 7 7 7 6 5 4 3 3 4 5 5 5 6 6 6 6 4 4 3 3 2 3 2 2 3 3
2 1 4 5 5 6 6 6 6 6 5 4 6 6 8 8 8 8 7 7 6 6 5 4 3 3 3 3 4 5 6 6 6 7 6 7 5 4 3 3 3 3 3 3
1 1 4 5 5 5 3 4 6 6 6 4 6 7 7 8 10 10 9 8 6 5 5 4 3 3 2 2 2 4 5 6 6 6 7 6 5 3 3 3 4 4 3 3
1 0 1 2 3 4 3 3 3 4 4 7 8 8 7 7 10 10 8 7 5 4 4 3 2 2 1 1 2 3 5 5 6 6 7 6 6 6 6 5 5 3 3 2
1 1 1 1 2 3 4 4 3 4 5 5 6 8 6 4 6 7 6 6 4 4 3 3 3 2 2 2 3 3 4 5 6 6 6 6 6 7 7 6 5 4 3 2
1 1 0 1 2 3 5 5 4 4 5 2 5 8 3 0 1 2 2 3 3 3 2 2 2 2 2 2 3 4 4 5 5 5 6 5 5 4 4 5 4 4 3 3
1 2 0 1 1 3 5 5 3 2 1 3 5 4 3 1 2 2 1 1 2 2 1 2 2 2 2 2 3 4 5 4 5 5 5 6 6 5 5 5 4 3 3 3
2 2 1 1 2 1 2 4 3 3 4 5 5 6 4 3 3 2 1 1 1 1 1 1 1 1 1 1 2 3 4 5 4 5 5 4 5 5 5 5 5 4 4 4
2 1 1 1 2 3 3 4 3 3 3 4 5 3 1 3 3 3 2 1 0 1 1 1 1 1 1 2 2 3 3 4 4 4 5 5 5 5 5 4 5 4 4 4
1 1 1 2 1 2 2 4 4 5 4 4 4 2 3 1 1 2 1 0 1 1 1 1 1 1 1 2 2 2 3 3 3 4 4 5 5 5 5 4 4 4 4 4
1 1 2 3 3 2 1 2 3 3 2 4 5 2 3 1 0 0 0 1 1 1 1 1 1 1 1 1 1 2 3 3 3 4 4 4 4 5 4 4 4 4 4 4
0 1 3 3 1 1 2 3 4 5 5 6 6 5 3 2 1 1 1 0 1 1 1 1 1 1 1 1 1 1 2 2 3 4 4 4 4 4 4 4 4 3 3 4
1 1 1 2 2 1 2 4 5 6 6 6 6 6 6 4 3 3 2 2 2 2 2 3 2 2 2 1 1 1 1 2 3 4 4 4 3 3 3 3 3 3 3 3
1 1 1 2 0 0 3 4 5 6 6 6 6 7 6 4 2 2 3 2 2 3 3 3 3 3 2 2 1 1 2 2 3 3 3 3 3 3 3 3 3 3 3 3
0 1 1 2 1 2 5 5 6 4 4 5 7 6 4 3 4 3 3 3 2 3 3 4 3 3 3 2 2 2 2 2 3 3 3 3 3 3 3 3 3 3 3 3
2 1 1 1 0 4 0 2 2 4 5 5 5 5 4 4 4 3 3 3 3 3 4 3 3 3 3 3 2 1 1 2 2 3 3 3 3 3 3 3 3 3 2 2
1 2 1 1 2 5 3 1 1 3 5 4 5 5 4 2 2 2 2 2 3 3 3 3 3 2 3 2 2 1 1 1 2 2 2 2 3 3 3 3 3 3 2 2
2 0 2 2 3 5 1 2 1 3 4 1 3 5 4 3 3 2 2 2 2 2 2 2 2 2 2 2 1 0 1 1 2 2 2 2 2 3 3 3 2 2 2 2
1 1 3 4 4 5 1 1 2 4 2 2 2 3 3 4 4 2 1 2 2 2 2 2 2 2 2 2 1 0 1 1 1 1 2 2 2 2 2 2 2 2 2 2
3 4 4 4 5 5 2 3 4 3 3 2 2 2 3 3 3 2 2 2 2 2 2 2 2 2 2 2 1 0 1 1 1 1 2 2 2 2 2 2 2 2 2 2
5 4 3 5 4 1 3 3 3 3 3 3 3 3 3 3 3 2 2 2 2 2 2 2 2 2 2 2 1 0 1 1 1 1 2 2 1 1 2 2 2 2 2 2
4 3 4 5 7 5 5 5 5 4 5 5 4 4 3 3 3 3 2 2 2 2 2 2 2 2 2 2 2 1 1 1 1 1 1 1 2 2 1 1 2 2 2 2
4 5 5 6 6 6 5 6 6 5 5 5 4 4 3 3 3 3 2 2 2 2 2 2 1 2 2 2 2 2 1 0 1 1 1 1 1 2 1 1 1 1 1 1
6 7 7 6 4 5 4 3 4 4 4 4 3 3 3 3 3 3 2 2 2 2 2 2 2 2 2 2 2 2 1 0 1 1 1 1 1 1 1 2 1 2 1 1
Wind_Direction
169 176 197 204 208 214 202 200 208 216 217 215 214 216 221 219 214 211 207 200 192 190 182 171 166 168 167 165 164 165 164 162 157 158 161 157 152 147 140 137 141 151 150 150
166 200 213 210 205 197 201 197 204 203 203 218 207 226 227 221 217 215 208 201 192 184 175 164 168 173 176 174 170 168 166 168 168 169 164 154 145 137 135 139 140 149 146 145
176 199 200 193 197 198 205 202 199 195 200 203 203 224 218 217 215 219 217 209 198 192 184 174 171 180 178 179 178 175 174 168 167 159 144 134 129 126 138 150 152 156 149 148
196 208 188 184 199 200 206 200 201 195 196 203 210 223 214 209 209 212 213 209 201 191 183 179 176 179 184 188 180 175 174 166 162 161 165 166 170 167 175 166 154 150 145 140
168 200 182 190 209 206 206 195 205 206 207 217 217 223 213 194 211 211 211 209 204 200 193 186 185 183 191 183 181 176 169 168 164 169 173 171 168 156 147 148 146 144 138 138
97 301 249 240 215 198 171 167 179 199 212 222 212 218 215 195 208 210 205 201 197 195 197 194 194 182 174 164 185 177 170 169 169 172 177 176 166 155 155 162 158 150 140 139
81 95 346 269 186 176 180 174 173 190 205 220 198 223 232 200 209 217 210 199 193 188 181 180 192 199 184 177 182 177 173 171 172 174 177 175 171 167 169 172 171 158 156 155
175 185 305 305 227 209 205 208 214 215 207 199 196 223 215 107 194 204 214 195 186 185 181 182 191 206 204 196 183 181 179 176 173 172 172 169 166 165 168 174 169 162 159 157
234 224 265 282 266 209 188 202 251 289 224 219 209 230 262 219 176 170 156 157 199 194 193 204 206 216 210 205 196 189 183 179 176 173 170 168 166 165 167 167 164 158 152 147
307 248 287 291 188 162 242 182 188 209 210 221 219 231 225 187 200 192 170 197 270 308 278 243 230 220 227 226 214 194 186 184 179 176 173 167 166 165 163 163 163 160 158 156
314 252 202 172 207 209 180 184 199 208 255 243 229 228 35 213 196 200 208 235 300 319 279 255 244 235 231 232 208 192 182 176 176 178 175 166 162 163 166 167 165 163 163 163
324 276 222 232 300 299 243 214 203 215 216 247 258 276 43 322 207 216 232 23 19 325 332 320 270 245 226 221 194 195 191 178 179 178 174 167 163 164 167 166 165 165 167 167
206 211 198 176 179 157 214 223 231 223 218 224 234 235 53 9 6 347 4 40 23 350 352 355 308 260 251 232 203 195 196 187 183 177 171 168 166 168 170 167 166 166 169 169
81 217 249 242 287 192 231 239 227 207 220 224 233 247 276 296 294 309 311 315 338 348 352 345 319 310 295 254 219 204 204 193 185 178 176 175 173 173 173 167 166 168 173 177
29 231 241 292 303 245 248 251 228 218 235 238 234 242 261 280 280 285 288 298 319 327 332 330 323 320 310 298 244 218 216 205 190 182 178 178 173 168 165 164 165 168 175 180
27 236 235 257 213 232 281 268 239 233 242 243 259 273 290 299 286 277 276 280 288 307 316 321 325 319 307 292 270 246 236 225 200 188 182 171 169 169 164 162 166 167 173 175
221 196 254 250 299 278 261 256 233 231 238 238 244 263 299 293 270 261 261 259 270 291 305 309 310 307 303 298 284 260 245 230 210 191 181 173 172 173 169 165 169 174 178 176
180 177 232 285 276 239 289 38 257 233 252 256 267 275 275 281 296 287 265 261 276 290 298 301 306 310 310 309 300 276 240 215 196 182 179 178 179 180 176 173 176 178 180 182
219 191 193 220 248 272 270 225 251 248 267 262 254 265 276 307 315 284 278 278 275 284 294 300 307 310 312 314 306 261 212 199 181 179 183 190 187 184 184 182 184 182 174 176
73 196 209 206 235 249 19 76 335 252 261 295 257 251 249 240 249 275 321 316 302 303 314 321 325 327 328 332 322 239 211 202 199 192 189 191 191 190 187 189 187 178 173 177
180 186 213 218 236 264 348 330 211 214 297 345 273 252 238 246 286 319 320 315 321 326 332 338 339 337 332 333 326 245 237 244 235 199 178 181 186 191 188 184 178 167 165 167
206 191 196 200 219 245 113 153 207 280 339 308 290 274 270 282 301 299 295 306 325 334 338 341 343 339 335 333 310 272 299 296 227 173 166 167 180 186 174 167 168 166 164 166
220 220 215 214 230 356 181 221 275 305 283 287 289 287 275 277 280 279 290 307 318 324 329 334 338 336 339 338 320 299 312 304 183 158 161 159 163 173 173 170 171 172 176 175
219 224 230 247 254 260 252 258 275 271 271 283 281 276 267 267 268 278 287 300 310 317 323 333 342 346 342 345 343 330 320 293 165 153 156 156 156 157 161 170 182 180 182 183
218 187 217 246 267 278 251 247 262 272 274 277 276 269 254 245 251 254 272 288 299 311 323 327 329 333 333 342 352 348 336 194 162 157 160 153 156 158 154 151 166 197 211 207
199 199 207 234 229 232 253 255 259 253 257 263 263 273 263 234 235 242 254 268 278 295 313 321 323 322 325 343 352 350 349 196 165 152 158 161 159 159 162 150 123 94 165 143